Location: Beadle
(51.4667°N, 109.0000°W)
Time: 05:57:39
(UTC+00:00)

Envisat - Pass Details

Date: 24 January 2022
Orbit: 764 x 765 km, 98.2° (Epoch: 25 May)

Event Time Altitude Azimuth Distance (km) Brightness Sun altitude
Rises 12:10:27 0° 15° (NNE) 3,244 6.5 -26.9°
Reaches altitude 10° 12:12:47 10° 18° (NNE) 2,314 5.7 -26.5°
Maximum altitude 12:17:52 71° 103° (ESE) 813 3.2 -25.7°
Drops below altitude 10° 12:22:56 10° 187° (S) 2,298 5.4 -24.9°
Sets 12:25:14 0° 190° (S) 3,220 6.1 -24.6°
